TimeEDT,TemperatureF,Dew PointF,Humidity,Sea Level PressureIn,VisibilityMPH,Wind Direction,Wind SpeedMPH,Gust SpeedMPH,PrecipitationIn,Events,Conditions,WindDirDegrees,DateUTC
12:15 AM,32.0,32.0,100,29.75,3.0,WSW,6.9,-,0.02,Snow,Light Snow,250,2013-03-26 04:15:00
12:35 AM,32.0,32.0,100,29.76,2.5,WSW,5.8,-,0.03,Snow,Light Snow,250,2013-03-26 04:35:00
12:55 AM,32.0,32.0,100,29.76,2.5,WSW,5.8,-,0.08,Snow,Light Snow,240,2013-03-26 04:55:00
1:15 AM,32.0,32.0,100,29.77,1.8,WSW,6.9,-,0.06,Snow,Light Snow,250,2013-03-26 05:15:00
1:35 AM,32.0,32.0,100,29.77,3.0,WSW,6.9,-,0.13,Snow,Light Snow,250,2013-03-26 05:35:00
1:55 AM,32.0,32.0,100,29.78,2.0,WSW,6.9,-,0.26,Snow,Light Snow,250,2013-03-26 05:55:00
2:15 AM,32.0,32.0,100,29.78,6.0,West,6.9,-,N/A,Rain,Light Rain,260,2013-03-26 06:15:00
2:35 AM,32.0,32.0,100,29.78,7.0,WSW,5.8,-,N/A,Rain,Light Rain,250,2013-03-26 06:35:00
2:55 AM,32.0,32.0,100,29.79,7.0,WSW,4.6,-,N/A,,Overcast,250,2013-03-26 06:55:00
3:15 AM,32.0,32.0,100,29.79,3.0,West,4.6,-,0.01,Snow,Light Snow,280,2013-03-26 07:15:00
3:55 AM,32.0,32.0,100,29.80,1.8,West,4.6,-,0.20,Snow,Light Snow,260,2013-03-26 07:55:00
4:15 AM,32.0,32.0,100,29.80,3.0,West,5.8,-,0.03,Snow,Light Snow,260,2013-03-26 08:15:00
4:35 AM,32.0,32.0,100,29.81,3.0,West,5.8,-,0.12,Snow,Light Snow,260,2013-03-26 08:35:00
4:55 AM,32.0,32.0,100,29.81,2.0,West,4.6,-,0.21,Snow,Light Snow,260,2013-03-26 08:55:00
5:15 AM,32.0,32.0,100,29.82,3.0,West,3.5,-,0.01,Snow,Light Snow,280,2013-03-26 09:15:00
5:35 AM,32.0,32.0,100,29.82,5.0,WNW,3.5,-,0.03,Rain,Light Rain,290,2013-03-26 09:35:00
5:55 AM,32.0,32.0,100,29.83,8.0,NW,5.8,-,0.03,Rain,Light Rain,310,2013-03-26 09:55:00
6:15 AM,32.0,32.0,100,29.84,7.0,NW,5.8,-,N/A,Rain,Light Rain,310,2013-03-26 10:15:00
6:35 AM,32.0,32.0,100,29.84,8.0,NW,5.8,-,N/A,Rain,Light Rain,310,2013-03-26 10:35:00
6:55 AM,32.0,32.0,100,29.85,5.0,NNW,5.8,-,N/A,Rain,Light Rain,330,2013-03-26 10:55:00
7:15 AM,32.0,32.0,100,29.86,5.0,NNW,5.8,-,N/A,Rain,Light Rain,340,2013-03-26 11:15:00
7:35 AM,32.0,32.0,100,29.87,8.0,NNW,5.8,-,N/A,,Overcast,330,2013-03-26 11:35:00
7:55 AM,32.0,32.0,100,29.89,8.0,NNW,5.8,-,N/A,,Overcast,330,2013-03-26 11:55:00
8:15 AM,32.0,32.0,100,29.90,10.0,NNW,6.9,-,N/A,,Overcast,330,2013-03-26 12:15:00
8:35 AM,32.0,32.0,100,29.90,9.0,NNW,4.6,-,N/A,,Mostly Cloudy,330,2013-03-26 12:35:00
8:55 AM,32.0,32.0,100,29.91,7.0,NW,4.6,-,N/A,Snow,Light Snow,320,2013-03-26 12:55:00
9:15 AM,32.0,32.0,100,29.92,6.0,NW,3.5,-,N/A,Snow,Light Snow,310,2013-03-26 13:15:00
9:35 AM,32.0,32.0,100,29.93,10.0,NW,3.5,-,N/A,,Overcast,310,2013-03-26 13:35:00
9:55 AM,32.0,32.0,100,29.93,10.0,NW,3.5,-,N/A,,Overcast,310,2013-03-26 13:55:00
10:15 AM,32.0,32.0,100,29.94,10.0,WNW,3.5,-,N/A,,Overcast,300,2013-03-26 14:15:00
10:35 AM,32.0,32.0,100,29.94,10.0,WNW,5.8,-,N/A,,Overcast,300,2013-03-26 14:35:00
10:55 AM,33.8,30.2,87,29.95,10.0,WNW,4.6,-,N/A,,Mostly Cloudy,300,2013-03-26 14:55:00
11:15 AM,33.8,30.2,87,29.96,10.0,WNW,5.8,-,N/A,,Mostly Cloudy,300,2013-03-26 15:15:00
11:35 AM,33.8,30.2,87,29.96,10.0,WNW,6.9,-,N/A,,Overcast,300,2013-03-26 15:35:00
11:55 AM,33.8,30.2,87,29.96,10.0,West,4.6,-,N/A,,Mostly Cloudy,280,2013-03-26 15:55:00
12:15 PM,33.8,30.2,87,29.97,10.0,WNW,6.9,-,N/A,,Mostly Cloudy,300,2013-03-26 16:15:00
12:35 PM,35.6,30.2,81,29.97,10.0,West,6.9,-,N/A,,Mostly Cloudy,260,2013-03-26 16:35:00
12:55 PM,35.6,30.2,81,29.97,10.0,West,5.8,-,N/A,,Mostly Cloudy,260,2013-03-26 16:55:00
1:15 PM,35.6,30.2,81,29.97,10.0,West,10.4,-,N/A,,Mostly Cloudy,260,2013-03-26 17:15:00
1:35 PM,35.6,30.2,81,29.97,9.0,WNW,8.1,-,N/A,,Mostly Cloudy,300,2013-03-26 17:35:00
1:55 PM,35.6,30.2,81,29.97,10.0,West,6.9,-,N/A,,Mostly Cloudy,270,2013-03-26 17:55:00
2:15 PM,35.6,30.2,81,29.96,9.0,West,9.2,-,N/A,,Mostly Cloudy,260,2013-03-26 18:15:00
2:35 PM,37.4,28.4,70,29.96,10.0,West,6.9,-,N/A,,Mostly Cloudy,280,2013-03-26 18:35:00
2:55 PM,35.6,30.2,81,29.96,9.0,West,8.1,-,0.01,,Mostly Cloudy,260,2013-03-26 18:55:00
3:15 PM,37.4,28.4,70,29.96,10.0,West,8.1,-,N/A,,Scattered Clouds,270,2013-03-26 19:15:00
3:35 PM,35.6,30.2,81,29.97,2.0,NW,15.0,25.3,0.03,Snow,Heavy Snow,320,2013-03-26 19:35:00
3:55 PM,33.8,33.8,100,29.97,10.0,West,6.9,-,0.23,,Mostly Cloudy,280,2013-03-26 19:55:00
4:15 PM,35.6,32.0,87,29.97,10.0,West,8.1,-,N/A,,Partly Cloudy,270,2013-03-26 20:15:00
4:35 PM,35.6,32.0,87,29.97,10.0,West,9.2,-,N/A,,Partly Cloudy,270,2013-03-26 20:35:00
4:55 PM,35.6,32.0,87,29.98,10.0,West,11.5,-,N/A,,Partly Cloudy,280,2013-03-26 20:55:00
5:15 PM,37.4,32.0,81,29.98,10.0,NW,5.8,-,N/A,,Partly Cloudy,320,2013-03-26 21:15:00
5:35 PM,33.8,32.0,93,29.99,1.2,NNW,11.5,-,0.14,Snow,Light Snow,340,2013-03-26 21:35:00
5:55 PM,33.8,33.8,100,29.99,5.0,NW,3.5,-,0.30,,Mostly Cloudy,310,2013-03-26 21:55:00
6:15 PM,33.8,32.0,93,30.00,10.0,West,10.4,17.3,N/A,,Scattered Clouds,280,2013-03-26 22:15:00
6:35 PM,33.8,32.0,93,30.01,10.0,WNW,10.4,-,N/A,,Mostly Cloudy,290,2013-03-26 22:35:00
6:55 PM,33.8,32.0,93,30.02,10.0,NW,11.5,16.1,N/A,Snow,Light Snow,310,2013-03-26 22:55:00
7:15 PM,33.8,32.0,93,30.03,10.0,WNW,8.1,18.4,N/A,,Mostly Cloudy,290,2013-03-26 23:15:00
7:35 PM,33.8,32.0,93,30.04,1.0,NNW,6.9,-,0.08,Snow,Light Snow,330,2013-03-26 23:35:00
7:55 PM,32.0,32.0,100,30.04,10.0,WNW,5.8,-,0.09,Snow,Light Snow,300,2013-03-26 23:55:00
8:15 PM,33.8,32.0,93,30.05,10.0,WNW,5.8,-,N/A,Snow,Light Snow,290,2013-03-27 00:15:00
8:35 PM,33.8,32.0,93,30.06,9.0,West,9.2,-,N/A,Snow,Light Snow,270,2013-03-27 00:35:00
8:55 PM,32.0,32.0,100,30.06,1.8,NW,10.4,18.4,0.11,Snow,Light Snow,320,2013-03-27 00:55:00
9:15 PM,32.0,32.0,100,30.07,4.0,WNW,9.2,-,0.01,Snow,Light Snow,290,2013-03-27 01:15:00
9:35 PM,32.0,32.0,100,30.08,10.0,WNW,9.2,-,0.02,,Mostly Cloudy,290,2013-03-27 01:35:00
9:55 PM,32.0,32.0,100,30.09,3.0,West,8.1,-,0.04,Snow,Light Snow,280,2013-03-27 01:55:00
10:15 PM,32.0,32.0,100,30.09,7.0,West,9.2,-,N/A,Snow,Light Snow,270,2013-03-27 02:15:00
10:35 PM,32.0,32.0,100,30.10,10.0,West,8.1,-,N/A,,Scattered Clouds,280,2013-03-27 02:35:00
10:55 PM,32.0,32.0,100,30.10,10.0,West,8.1,-,N/A,Snow,Light Snow,270,2013-03-27 02:55:00
11:15 PM,32.0,32.0,100,30.10,8.0,WSW,9.2,-,N/A,Snow,Light Snow,250,2013-03-27 03:15:00
11:35 PM,32.0,32.0,100,30.10,10.0,West,8.1,-,N/A,,Mostly Cloudy,260,2013-03-27 03:35:00
11:55 PM,32.0,32.0,100,30.10,10.0,WSW,10.4,-,N/A,,Mostly Cloudy,250,2013-03-27 03:55:00